Location: *
(44.1392°N, 4.8079°E)
Time: 07:03:03
(UTC+00:00)

Cosmos 1606 - Pass Details

Date: 21 June 2021
Orbit: 501 x 527 km, 82.5° (Epoch: 02 August)

Event Time Altitude Azimuth Distance (km) Brightness Sun altitude
Rises 00:41:51 0° 357° (N) 2,650 7.6 -21.1°
Reaches altitude 10° 00:44:05 10° 5° (N) 1,753 6.5 -21.0°
Maximum altitude 00:47:46 43° 78° (ENE) 735 3.6 -20.8°
Enters shadow 00:48:49 34° 119° (ESE) 864 3.6 -20.7°
